Location: Apeadero de Los Molinos-Guadarrama
(40.7091°N, 4.0689°W)
Time: 10:02:33
(UTC+00:00)

SL-24 R/B - RUBIN 2 - Pass Details

Date: 14 May 2021
Orbit: 583 x 1012 km, 64.6° (Epoch: 20 June)

Event Time Altitude Azimuth Distance (km) Brightness Sun altitude
Rises 22:22:03 0° 327° (NNW) 3,345 8.7 -25.1°
Reaches altitude 10° 22:24:38 10° 327° (NNW) 2,338 7.5 -25.4°
Enters shadow 22:29:55 88° 296° (WNW) 717 3.7 -25.8°
